This is the latest recevied weather packets stored in our database for station/object I1SXT-13. If no packets are shown the sender has not sent any weather packets the latest 10 day(s).
| Time | Temp. | Humidity | Pressure | Rain* | Wind** | Luminosity | Snow |
|---|---|---|---|---|---|---|---|
| 1777621165 | 17.22° C | 40% | 1026.2 hPa | 0 mm | - | - | - |
| 1777620868 | 16.67° C | 39% | 1026 hPa | 0 mm | - | - | - |
| 1777620564 | 16.67° C | 44% | 1027.3 hPa | 0 mm | - | - | - |
| 1777620267 | 16.11° C | 41% | 1026.8 hPa | 0 mm | - | - | - |
| 1777619969 | 15.56° C | 54% | 1026.5 hPa | 0 mm | - | - | - |
| 1777619665 | 15° C | 41% | 1025.7 hPa | 0 mm | - | - | - |
| 1777619368 | 14.44° C | 52% | 1025.7 hPa | 0 mm | - | - | - |
| 1777619064 | 14.44° C | 51% | 1026.6 hPa | 0 mm | - | - | - |
| 1777618767 | 13.89° C | 55% | 1027 hPa | 0 mm | - | - | - |
| 1777618470 | 13.89° C | 54% | 1026.5 hPa | 0 mm | - | - | - |
| 1777618166 | 13.33° C | 53% | 1026.4 hPa | 0 mm | - | - | - |
| 1777617868 | 13.33° C | 54% | 1026.2 hPa | 0 mm | - | - | - |
| 1777617564 | 13.33° C | 53% | 1026.2 hPa | 0 mm | - | - | - |
| 1777617267 | 13.33° C | 53% | 1025.8 hPa | 0 mm | - | - | - |
| 1777616970 | 13.33° C | 47% | 1026 hPa | 0 mm | - | - | - |
| 1777616666 | 12.78° C | 56% | 1026 hPa | 0 mm | - | - | - |
| 1777616369 | 12.22° C | 56% | 1026.5 hPa | 0 mm | - | - | - |
| 1777616065 | 11.67° C | 57% | 1025.6 hPa | 0 mm | - | - | - |
| 1777615768 | 11.67° C | 58% | 1026.6 hPa | 0 mm | - | - | - |
| 1777615464 | 11.67° C | 56% | 1026.1 hPa | 0 mm | - | - | - |
| 1777615166 | 11.67° C | 57% | 1025.9 hPa | 0 mm | - | - | - |
| 1777614869 | 11.67° C | 56% | 1026.4 hPa | 0 mm | - | - | - |
| 1777614268 | 12.22° C | 51% | 1025.9 hPa | 0 mm | - | - | - |
| 1777613964 | 12.78° C | 47% | 1026.1 hPa | 0 mm | - | - | - |
| 1777613667 | 11.67° C | 50% | 1025.8 hPa | 0 mm | - | - | - |
* Rain since midnight (hover to see other rain measurements)
** Current wind speed in m/s (hover to see current wind gust speed)